Location: Observatoire Alphonse-Tardif � St-N�r�e
(46.7267°N, 70.7033°W)
Time: 16:03:40
(UTC-05:00)

ISS - Visible Passes

Search period start: 17 November 2018 00:00
Search period end: 27 November 2018 00:00
Orbit: 402 x 408 km, 51.6° (Epoch: 18 November)

Date Brightness Start Highest point End Pass type
(mag) Time Alt. Az. Time Alt. Az. Time Alt. Az.
23 Nov -1.5 18:00:37 10° S 18:01:39 15° S 18:01:39 15° S visible
24 Nov -1.5 17:09:54 10° SSE 17:11:07 12° SE 17:11:51 11° ESE visible
24 Nov -0.9 18:43:50 10° SW 18:44:32 15° SW 18:44:32 15° SW visible
25 Nov -3.1 17:51:51 10° SW 17:54:39 39° SSE 17:54:39 39° SSE visible
26 Nov -2.3 17:00:10 10° SSW 17:02:52 24° SE 17:04:40 15° E visible
26 Nov -1.4 18:35:53 10° WSW 18:37:20 24° W 18:37:20 24° W visible
